DW8248 Weather Reports


time (UTC)temp
C
wind
direction
speed
KPH
gust
KPH
rain 1hr
cm
rain 24hr
cm
rain mn
cm
humidity
%
barometer
mb
20260506051059 25 94 4.8 11.3 0.00 0.00 0.00 70 1016.1
20260506045013 25 126 6.4 16.1 0.00 0.00 0.00 70 1016.0
20260506043939 25 114 8.0 14.5 0.00 0.00 0.00 70 1016.0
20260506042908 25 104 6.4 16.1 0.00 0.00 0.00 70 1016.0
20260506040738 25 88 8.0 16.1 0.00 0.00 0.00 70 1016.2
20260506035730 25 129 6.4 16.1 0.00 0.00 0.00 70 1016.3
20260506034746 25 92 4.8 14.5 0.00 0.00 0.00 70 1016.3
20260506033714 25 111 6.4 19.3 0.00 0.00 0.00 69 1016.3
20260506032721 25 102 6.4 19.3 0.00 0.00 0.00 69 1016.4
20260506030536 25 92 6.4 14.5 0.00 0.00 0.00 70 1016.3
20260506025555 25 99 6.4 14.5 0.00 0.00 0.00 70 1016.4
20260506021115 25 104 6.4 14.5 0.00 0.00 0.00 70 1016.1
20260506020107 25 121 6.4 14.5 0.00 0.00 0.00 70 1016.1
20260506014024 25 80 6.4 17.7 0.00 0.00 0.00 69 1015.9
20260506013033 25 80 6.4 16.1 0.00 0.00 0.00 69 1015.7
20260506012028 25 103 8.0 19.3 0.00 0.00 0.00 68 1015.4
20260506011042 25 113 8.0 19.3 0.00 0.00 0.00 69 1015.2
20260506004856 25 0 6.4 16.1 0.00 0.00 0.00 67 1015.3
20260506003914 25 76 6.4 17.7 0.00 0.00 0.00 69 1015.1
20260506002841 25 99 6.4 17.7 0.00 0.00 0.00 66 1015.2
20260506001835 25 0 6.4 16.1 0.00 0.00 0.00 67 1015.2
20260506000840 25 77 6.4 16.1 0.00 0.00 0.00 67 1015.1
20260505235822 25 42 4.8 16.1 0.00 0.00 0.00 67 1015.0
20260505233621 25 81 8.0 16.1 0.00 0.00 0.00 62 1015.0
20260505232622 25 93 6.4 16.1 0.00 0.00 0.00 61 1015.0
20260505230531 25 88 6.4 14.5 0.00 0.00 0.00 63 1015.2
20260505225542 25 66 8.0 17.7 0.00 0.00 0.00 64 1015.2
20260505224554 26 53 8.0 17.7 0.00 0.00 0.00 63 1015.3
20260505223518 26 88 6.4 17.7 0.00 0.00 0.00 63 1015.4
20260505222507 26 40 8.0 19.3 0.00 0.00 0.00 64 1015.4
20260505221510 26 42 8.0 19.3 0.00 0.00 0.00 61 1015.3
20260505220516 26 46 8.0 17.7 0.00 0.00 0.00 62 1015.3
20260505215444 26 57 8.0 17.7 0.00 0.00 0.00 59 1015.2
20260505214410 26 67 9.7 17.7 0.00 0.00 0.00 60 1015.2
20260505213430 26 40 8.0 17.7 0.00 0.00 0.00 63 1015.2
20260505211330 26 61 8.0 19.3 0.00 0.00 0.00 63 1015.0
20260505210344 26 78 9.7 17.7 0.00 0.00 0.00 63 1015.0
20260505205404 26 46 9.7 19.3 0.00 0.00 0.00 63 1015.1
20260505204407 26 50 8.0 19.3 0.00 0.00 0.00 63 1015.0
20260505203405 26 76 9.7 19.3 0.00 0.00 0.00 60 1015.1
20260505202412 26 49 8.0 19.3 0.00 0.00 0.00 59 1015.2
20260505201416 26 94 11.3 19.3 0.00 0.00 0.00 61 1015.3
20260505200425 26 59 9.7 17.7 0.00 0.00 0.00 61 1015.2
20260505194206 26 65 8.0 16.1 0.00 0.00 0.00 62 1015.6
20260505193227 26 98 9.7 17.7 0.00 0.00 0.00 59 1015.7
20260505192230 26 46 9.7 19.3 0.00 0.00 0.00 61 1015.8
20260505191212 26 55 9.7 19.3 0.00 0.00 0.00 62 1015.8
20260505190202 26 94 9.7 17.7 0.00 0.00 0.00 61 1016.0
20260505185127 27 48 8.0 17.7 0.00 0.00 0.00 60 1016.1
20260505184115 26 59 9.7 17.7 0.00 0.00 0.00 60 1016.2
20260505183120 26 60 8.0 16.1 0.00 0.00 0.00 62 1016.3
20260505182122 26 87 9.7 16.1 0.00 0.00 0.00 63 1016.3
20260505181117 26 61 9.7 16.1 0.00 0.00 0.00 62 1016.4
20260505180048 26 90 8.0 20.9 0.00 0.00 0.00 59 1016.4
20260505175026 26 64 9.7 19.3 0.00 0.00 0.00 59 1016.5
20260505172902 26 16 9.7 19.3 0.00 0.00 0.00 62 1016.5
20260505171858 26 68 8.0 19.3 0.00 0.00 0.00 64 1016.5
20260505170834 26 114 9.7 19.3 0.00 0.00 0.00 61 1016.6
20260505165824 26 86 9.7 20.9 0.00 0.00 0.00 60 1016.6
20260505164840 26 67 9.7 20.9 0.00 0.00 0.00 61 1016.5
20260505163809 26 88 8.0 19.3 0.00 0.00 0.00 62 1016.5
20260505162750 26 92 8.0 19.3 0.00 0.00 0.00 62 1016.7
20260505161724 26 59 9.7 19.3 0.00 0.00 0.00 62 1016.6
20260505160733 26 144 11.3 19.3 0.00 0.00 0.00 64 1016.6
20260505153352 26 101 9.7 20.9 0.00 0.00 0.00 62 1016.6
20260505152316 26 98 9.7 19.3 0.00 0.00 0.00 64 1016.5
20260505151301 26 77 9.7 22.5 0.00 0.00 0.00 66 1016.4
20260505150257 26 95 11.3 22.5 0.00 0.00 0.00 66 1016.3
20260505124709 25 115 9.7 20.9 0.00 0.00 0.00 68 1015.7
20260505123637 25 91 9.7 17.7 0.00 0.00 0.00 68 1015.6
20260505122627 25 76 9.7 17.7 0.00 0.00 0.00 68 1015.8
20260505121638 25 107 8.0 22.5 0.00 0.00 0.00 69 1016.1
20260505120658 25 76 9.7 22.5 0.00 0.00 0.00 69 1016.0
20260505115710 24 71 6.4 22.5 0.00 0.00 0.00 69 1015.7
20260505112355 23 115 8.0 19.3 0.00 0.00 0.00 69 1015.3
20260505111355 23 73 8.0 19.3 0.00 0.00 0.00 70 1015.0
20260505110357 23 75 6.4 16.1 0.00 0.00 0.00 69 1014.8
20260505100134 23 105 6.4 12.9 0.00 0.00 0.00 70 1014.4
20260505095152 23 128 4.8 12.9 0.00 0.00 0.00 70 1014.3
20260505094125 23 78 8.0 16.1 0.00 0.00 0.00 70 1014.2
20260505093104 23 48 6.4 16.1 0.00 0.00 0.00 69 1014.2
20260505084824 23 108 6.4 14.5 0.00 0.00 0.00 70 1013.9
20260505083751 23 67 4.8 11.3 0.00 0.00 0.00 70 1013.9
20260505082757 23 98 6.4 14.5 0.00 0.00 0.00 70 1013.9
20260505081801 23 115 4.8 16.1 0.00 0.00 0.00 70 1013.7
20260505080747 23 102 6.4 16.1 0.00 0.00 0.00 69 1014.0
20260505075745 23 105 4.8 16.1 0.00 0.00 0.00 71 1013.9
20260505073607 23 96 8.0 16.1 0.00 0.00 0.00 70 1014.0
20260505072622 23 107 6.4 14.5 0.00 0.00 0.00 70 1014.2
20260505071602 23 93 6.4 14.5 0.00 0.00 0.00 70 1014.3
20260505070608 23 111 4.8 17.7 0.00 0.00 0.00 69 1014.2
20260505065542 23 123 6.4 17.7 0.00 0.00 0.00 70 1014.3
20260505064531 23 129 8.0 17.7 0.00 0.00 0.00 71 1014.3
20260505063456 23 118 6.4 14.5 0.00 0.00 0.00 70 1014.4
20260505062419 23 101 6.4 17.7 0.00 0.00 0.00 70 1014.7
20260505060228 23 75 6.4 16.1 0.00 0.00 0.00 70 1014.7